Simultaneous Nadir Overpasses (SNOs) Predictions

Prediction of SNOs between FY3D and AQUA Satellite Orbit:

Table of predicted SNOs for the next 14.0 days since TLE Epoch: 1/7/2023
Index Date (FY3D) Time (FY3D) Lat,Lon (FY3D) SZA (FY3D ) Date (AQUA) Time (AQUA) Lat,Lon (AQUA) SZA (AQUA ) Distance(km) Time Diff (sec)
1 01/07/2023 09:39:54 77.87, 18.49 100.74 01/07/2023 09:40:31 77.87, 18.49 100.73 0.10 37
2 01/07/2023 10:30:24 -77.23,-171.13 80.06 01/07/2023 10:29:42 -77.23,-171.17 80.05 1.02 42
3 01/10/2023 00:16:26 77.87, 159.39 100.40 01/10/2023 00:16:57 77.87, 159.42 100.39 0.77 31
4 01/10/2023 01:06:56 -77.22, -30.21 80.41 01/10/2023 01:06:08 -77.22, -30.23 80.40 0.65 48
5 01/12/2023 14:52:53 77.71, -58.91 99.81 01/12/2023 14:53:18 77.72, -59.02 99.82 2.88 25
6 01/12/2023 15:43:28 -77.26, 110.50 80.75 01/12/2023 15:42:33 -77.26, 110.55 80.75 1.47 55
7 01/15/2023 05:29:28 77.84, 81.32 99.54 01/15/2023 05:29:45 77.84, 81.38 99.53 1.47 17
8 01/15/2023 06:19:57 -77.14,-108.07 81.34 01/15/2023 06:18:55 -77.15,-108.10 81.32 0.82 62
9 01/17/2023 20:05:58 77.78,-137.44 98.97 01/17/2023 20:06:07 77.77,-137.39 98.96 1.34 9
10 01/17/2023 20:56:27 -77.07, 33.14 81.91 01/17/2023 20:55:17 -77.08, 33.10 81.89 1.33 70
11 01/20/2023 10:42:30 77.80, 3.35 98.47 01/20/2023 10:42:30 77.79, 3.46 98.45 2.93 0



Historial Predications of SNOs between FY3D and AQUA
